Location: Hopville
(44.8032°N, 123.1329°W)
Time: 16:28:20
(UTC+00:00)

Cosmos 1315 Rocket - Pass Details

Date: 24 January 2021
Orbit: 529 x 567 km, 81.2° (Epoch: 28 February)

Event Time Altitude Azimuth Distance (km) Brightness Sun altitude
Rises 13:56:13 0° 171° (S) 2,661 6.6 -18.3°
Reaches altitude 10° 13:58:27 10° 163° (SSE) 1,774 5.7 -17.9°
Maximum altitude 14:02:05 39° 95° (E) 811 4.3 -17.2°
Drops below altitude 10° 14:05:45 10° 26° (NNE) 1,787 5.6 -16.6°
Sets 14:07:59 0° 18° (NNE) 2,684 6.4 -16.2°
